Valparaiso, IN

9:20 AM CST on November 17, 2019 (GMT -0600)
Porter County Municipal

Weather History for KVPZ - October, 2019

Change the Weather History Date:

Monday, October 21, 2019

  Actual Average Record
Temperature  
Mean Temperature 59 °F 51 °F  
Max Temperature 66 °F 61 °F 81 °F (2015)
Min Temperature 51 °F 41 °F 28 °F (2002)
Degree Days  
Heating Degree Days 6 14  
Month to date heating degree days 194 242  
Since 1 July heating degree days 203 372  
Cooling Degree Days 0 0  
Month to date cooling degree days 22 11  
Year to date cooling degree days 1042 713  
Growing Degree Days 8 (Base 50)    
Moisture  
Dew Point 52 °F    
Average Humidity 77    
Maximum Humidity 90    
Minimum Humidity 55    
Precipitation  
Precipitation 0.18 in 0.11 in 0.18 in (2019)
Month to date precipitation 1.24 2.22  
Year to date precipitation 32.29 30.97  
Sea Level Pressure  
Sea Level Pressure 29.61 in    
Wind  
Wind Speed 13 mph (SSE)    
Max Wind Speed 25 mph    
Max Gust Speed 43 mph    
Visibility 10 miles    
Events Rain    
T = Trace of Precipitation, MM = Missing Value Source: NWS Daily Summary

Daily Weather History Graph

Daily Weather History Graph

Search for Another Location

Airport or City:

Astronomy

Oct. 21, 2019 Rise Set
Actual Time 7:06 AM CDT 5:58 PM CDT
Civil Twilight 6:38 AM CDT 6:26 PM CDT
Nautical Twilight 6:06 AM CDT 6:58 PM CDT
Astronomical Twilight 5:34 AM CDT 7:30 PM CDT
Moon No Moon Rise 2:26 PM CDT (10/21)
Length of Visible Light 11h 47m
Length of Day
10h 51m
Waning Gibbous, 48% of the Moon is Illuminated
Oct 21
Waning Gibbous
Oct 27
New
Nov 4
First Quarter
Nov 12
Full
Nov 19
Last Quarter

Hourly Weather History & Observations

Time (CDT) Temp. Dew Point Humidity Pressure Visibility Wind Dir Wind Speed Gust Speed Precip Events Conditions
12:56 AM 52.0 °F 48.9 °F 89% 29.86 in 10.0 mi ENE 6.9 mph - N/A   Overcast
1:56 AM 53.1 °F 50.0 °F 89% 29.85 in 10.0 mi ENE 5.8 mph - N/A   Overcast
2:56 AM 55.0 °F 50.0 °F 83% 29.84 in 10.0 mi East 6.9 mph - N/A   Overcast
3:56 AM 55.9 °F 50.0 °F 80% 29.81 in 10.0 mi East 8.1 mph - N/A   Overcast
4:56 AM 57.9 °F 48.0 °F 70% 29.78 in 10.0 mi ESE 11.5 mph - N/A   Overcast
5:56 AM 57.9 °F 48.0 °F 70% 29.75 in 10.0 mi ESE 10.4 mph - N/A   Mostly Cloudy
6:56 AM 59.0 °F 48.9 °F 69% 29.71 in 10.0 mi ESE 12.7 mph - N/A   Mostly Cloudy
7:56 AM 60.1 °F 51.1 °F 72% 29.67 in 10.0 mi ESE 13.8 mph 24.2 mph N/A   Clear
8:56 AM 61.0 °F 53.1 °F 75% 29.67 in 10.0 mi SSE 15.0 mph 26.5 mph 0.01 in Rain Light Rain
9:56 AM 59.0 °F 54.0 °F 83% 29.62 in 10.0 mi SE 15.0 mph 26.5 mph 0.04 in Rain Light Rain
10:16 AM 59.0 °F 55.0 °F 87% 29.58 in 10.0 mi ESE 17.3 mph 32.2 mph 0.03 in Rain Light Rain
10:47 AM 59.0 °F 55.0 °F 87% 29.52 in 10.0 mi ESE 21.9 mph 34.5 mph 0.04 in Rain Light Rain
10:56 AM 60.1 °F 55.0 °F 83% 29.51 in 10.0 mi SE 16.1 mph 42.6 mph 0.05 in Rain Light Rain
11:56 AM 62.1 °F 57.0 °F 84% 29.55 in 10.0 mi South 15.0 mph 28.8 mph 0.00 in Rain Light Rain
12:28 PM 62.1 °F 57.0 °F 84% 29.54 in 10.0 mi South 15.0 mph 31.1 mph 0.00 in Rain Light Rain
12:56 PM 61.0 °F 57.0 °F 87% 29.52 in 10.0 mi SSE 16.1 mph 27.6 mph 0.01 in Rain Light Rain
1:25 PM 62.1 °F 57.9 °F 86% 29.52 in 10.0 mi SSE 11.5 mph 26.5 mph 0.03 in Rain Rain
1:42 PM 62.1 °F 57.9 °F 86% 29.52 in 10.0 mi SSE 13.8 mph 21.9 mph 0.06 in Rain Light Rain
1:56 PM 62.1 °F 59.0 °F 90% 29.52 in 10.0 mi South 13.8 mph 26.5 mph 0.07 in Rain Light Rain
2:18 PM 64.0 °F 57.9 °F 80% 29.50 in 10.0 mi South 15.0 mph 34.5 mph 0.00 in   Overcast
2:56 PM 64.0 °F 59.0 °F 84% 29.50 in 10.0 mi South 12.7 mph 27.6 mph 0.00 in   Overcast
3:28 PM 64.9 °F 59.0 °F 81% 29.51 in 10.0 mi SSW 17.3 mph 26.5 mph N/A   Overcast
3:56 PM 64.9 °F 57.9 °F 78% 29.49 in 10.0 mi South 18.4 mph 36.8 mph N/A   Overcast
4:23 PM 63.0 °F 57.0 °F 81% 29.50 in 10.0 mi SSW 19.6 mph 33.4 mph N/A   Mostly Cloudy
4:56 PM 64.9 °F 55.9 °F 73% 29.50 in 10.0 mi SSW 13.8 mph 26.5 mph N/A   Scattered Clouds
5:56 PM 64.0 °F 55.0 °F 73% 29.52 in 10.0 mi SSW 13.8 mph 27.6 mph N/A   Scattered Clouds
6:56 PM 62.1 °F 50.0 °F 65% 29.56 in 10.0 mi WSW 20.7 mph 32.2 mph 0.00 in Rain Light Rain
7:56 PM 59.0 °F 43.0 °F 55% 29.59 in 10.0 mi WSW 15.0 mph 24.2 mph 0.00 in   Scattered Clouds
8:56 PM 55.9 °F 39.9 °F 55% 29.62 in 10.0 mi SW 16.1 mph 32.2 mph N/A   Partly Cloudy
9:56 PM 54.0 °F 39.0 °F 57% 29.63 in 10.0 mi SW 11.5 mph 23.0 mph N/A   Clear
10:56 PM 53.1 °F 37.9 °F 57% 29.63 in 10.0 mi SW 12.7 mph - N/A   Clear
11:56 PM 53.1 °F 37.9 °F 57% 29.62 in 10.0 mi SSW 10.4 mph - N/A   Clear